Погода в Мичуринском

Россия / Пензенская область     53°06′29″N   44°55′22″E
темп.,
°C
ветер,
м/с
пор.,
м/с
влажн.,
%
обл.,
%
осадки,
мм/ч
давл.,
гПа
погр.,
м
8 марта, пн
пн800:00−3юз101793100 0.8 998957
03:00−3з91491100 1.3 998813
06:00−7зюз7148633 0.0 1001402
09:00−7зюз6128717 0.0 1002461
12:00−3юз7117966 0.0 10011010
15:00−2зюз8148382 0.1 10011458
18:00−6з6148599 0.3 1003547
21:00−11з5109057 0.3 1008178
9 марта, вт
вт900:00−14з34940 0.0 100953
03:00−16з22970 0.0 101120
06:00−17зюз12970 0.0 101120
09:00−13з11920 0.0 101296
12:00−9зсз228537 0.0 1011324
15:00−8зсз349068 0.0 1011438
18:00−10зсз4896100 0.2 1012272
21:00−12сз4994100 0.4 1014320
10 марта, ср
ср1000:00−16сз369795 0.1 101598
03:00−20сз479989 0.1 1017115
06:00−22сз4910068 0.0 1019161
09:00−19сз599685 0.1 1021337
12:00−17сз5791100 0.0 1022567
15:00−17сз6889100 0.1 1023680
18:00−21сз4896100 0.0 1024146
21:00−24ссз349898 0.1 102736
11 марта, чт
чт1100:00−27сз339920 0.0 102823
03:00−28сз239910 0.0 102922
06:00−28сз331000 0.0 103023
09:00−23сз36950 0.0 1031202
12:00−18сз459060 0.0 1031360
15:00−16зсз469164 0.0 1030351
18:00−19зсз449661 0.0 103172
21:00−20сз349965 0.0 103261
12 марта, пт
пт1200:00−20сз2310083 0.0 103320
03:00−21сз2310090 0.0 103420
06:00−22ссз2210083 0.0 103520
09:00−16с119352 0.0 1035101
12:00−12зюз228762 0.0 1035256
15:00−10ююз228451 0.0 1034289
18:00−15ююз23920 0.0 103320
21:00−17ю449330 0.0 103367